QPF
0.00 0.01 0.01 0.04 0.08 0.12 0.13 0.09 0.05 0.02 0.01 0.00 0.00 0.00 0.00 0.00 0.00 0.00 0.00 0.00 0.00 0.00 0.00 0.00 0.00 0.00 0.00 0.00 0.00 0.00 0.00 0.00 0.00 0.00 0.00 0.00 0.00 0.00 0.00 0.00 0.00 0.00 0.00
0.02 0.05 0.06 0.09 0.12 0.12 0.10 0.07 0.04 0.02 0.01 0.01 0.01 0.01 0.01 0.01 0.00 0.00 0.01 0.01 0.00 0.00 0.00 0.00 0.00 0.00 0.00 0.00 0.00 0.00 0.00 0.00 0.00 0.00 0.00 0.00 0.00 0.00 0.00 0.00 0.00 0.00 0.00
0.03 0.04 0.06 0.06 0.06 0.08 0.08 0.05 0.03 0.01 0.00 0.00 0.00 0.01 0.01 0.00 0.00 0.02 0.01 0.00 0.00 0.00 0.00 0.00 0.00 0.00 0.00 0.00 0.00 0.00 0.00 0.00 0.00 0.00 0.00 0.00 0.00 0.00 0.00 0.00 0.00 0.00 0.00
0.04 0.03 0.04 0.07 0.09 0.05 0.03 0.02 0.01 0.00 0.00 0.00 0.01 0.01 0.01 0.03 0.03 0.00 0.00 0.00 0.00 0.00 0.00 0.00 0.00 0.00 0.00 0.00 0.00 0.00 0.00 0.00 0.00 0.00 0.00 0.00 0.00 0.00 0.00 0.00 0.00 0.00 0.00
0.01 0.03 0.03 0.02 0.01 0.01 0.00 0.00 0.00 0.00 0.00 0.00 0.00 0.02 0.05 0.05 0.03 0.02 0.00 0.00 0.00 0.00 0.00 0.00 0.00 0.00 0.00 0.00 0.00 0.00 0.00 0.00 0.00 0.00 0.00 0.00 0.00 0.00 0.00 0.00 0.00 0.00 0.00
0.00 0.00 0.00 0.00 0.00 0.00 0.00 0.00 0.00 0.00 0.01 0.00 0.05 0.10 0.09 0.07 0.05 0.01 0.00 0.00 0.00 0.00 0.00 0.00 0.00 0.00 0.00 0.00 0.00 0.00 0.00 0.00 0.00 0.00 0.00 0.00 0.00 0.00 0.00 0.00 0.00 0.00 0.00
0.00 0.00 0.00 0.00 0.00 0.00 0.00 0.00 0.00 0.01 0.03 0.11 0.14 0.12 0.08 0.04 0.01 0.00 0.00 0.00 0.00 0.00 0.00 0.00 0.00 0.00 0.00 0.00 0.00 0.00 0.00 0.00 0.00 0.00 0.00 0.00 0.00 0.00 0.00 0.00 0.00 0.00 0.00
0.00 0.00 0.00 0.00 0.00 0.00 0.00 0.00 0.02 0.06 0.14 0.16 0.10 0.03 0.00 0.00 0.00 0.00 0.00 0.00 0.00 0.00 0.00 0.00 0.00 0.00 0.00 0.00 0.00 0.00 0.00 0.00 0.00 0.00 0.00 0.00 0.00 0.00 0.00 0.00 0.00 0.00 0.00
0.00 0.00 0.00 0.00 0.00 0.00 0.01 0.04 0.08 0.08 0.03 0.00 0.00 0.00 0.00 0.00 0.00 0.00 0.00 0.00 0.00 0.00 0.00 0.00 0.00 0.00 0.00 0.00 0.00 0.00 0.00 0.00 0.00 0.00 0.00 0.00 0.00 0.00 0.00 0.00 0.00 0.00 0.00
0.00 0.00 0.00 0.00 0.00 0.01 0.03 0.02 0.01 0.00 0.00 0.00 0.00 0.00 0.00 0.00 0.00 0.00 0.00 0.00 0.00 0.00 0.00 0.00 0.00 0.00 0.00 0.00 0.00 0.00 0.00 0.00 0.00 0.00 0.00 0.00 0.00 0.00 0.00 0.00 0.00 0.00 0.00
0.00 0.00 0.00 0.00 0.00 0.00 0.00 0.00 0.00 0.00 0.00 0.00 0.00 0.00 0.00 0.00 0.00 0.00 0.00 0.00 0.00 0.00 0.00 0.00 0.00 0.00 0.00 0.00 0.01 0.01 0.00 0.00 0.00 0.00 0.00 0.00 0.00 0.00 0.00 0.00 0.00 0.00 0.00
0.00 0.00 0.00 0.00 0.00 0.00 0.00 0.00 0.00 0.00 0.00 0.00 0.00 0.00 0.00 0.00 0.00 0.00 0.00 0.00 0.00 0.00 0.00 0.00 0.00 0.00 0.00 0.00 0.00 0.01 0.00 0.00 0.00 0.00 0.00 0.00 0.00 0.00 0.00 0.00 0.00 0.00 0.00
0.00 0.00 0.00 0.00 0.00 0.00 0.00 0.00 0.00 0.00 0.00 0.00 0.00 0.00 0.00 0.00 0.00 0.00 0.00 0.00 0.00 0.00 0.00 0.00 0.00 0.00 0.00 0.00 0.00 0.00 0.01 0.02 0.01 0.00 0.00 0.00 0.00 0.00 0.00 0.00 0.00 0.00 0.00
0.00 0.00 0.00 0.00 0.00 0.00 0.00 0.00 0.00 0.00 0.00 0.00 0.00 0.00 0.00 0.00 0.00 0.00 0.00 0.00 0.00 0.00 0.01 0.01 0.00 0.00 0.00 0.01 0.01 0.03 0.06 0.03 0.02 0.01 0.00 0.00 0.00 0.00 0.00 0.00 0.00 0.00 0.00
0.00 0.00 0.00 0.00 0.00 0.00 0.00 0.00 0.00 0.00 0.00 0.00 0.00 0.00 0.00 0.00 0.00 0.00 0.00 0.00 0.01 0.02 0.03 0.04 0.02 0.01 0.00 0.00 0.01 0.01 0.03 0.04 0.03 0.01 0.00 0.00 0.00 0.00 0.00 0.00 0.00 0.00 0.00
0.00 0.00 0.00 0.00 0.00 0.00 0.00 0.00 0.00 0.00 0.00 0.00 0.00 0.00 0.00 0.00 0.00 0.00 0.00 0.00 0.01 0.02 0.08 0.07 0.04 0.02 0.02 0.00 0.00 0.01 0.03 0.04 0.03 0.02 0.01 0.00 0.00 0.00 0.00 0.00 0.00 0.00 0.00
0.00 0.00 0.00 0.00 0.00 0.00 0.00 0.00 0.00 0.00 0.00 0.00 0.00 0.00 0.00 0.00 0.00 0.00 0.00 0.00 0.00 0.01 0.06 0.08 0.05 0.02 0.01 0.00 0.00 0.00 0.01 0.02 0.04 0.04 0.02 0.00 0.00 0.00 0.00 0.00 0.00 0.00 0.00
0.00 0.00 0.00 0.00 0.00 0.00 0.00 0.00 0.00 0.00 0.00 0.00 0.00 0.00 0.00 0.00 0.00 0.00 0.00 0.00 0.00 0.01 0.02 0.03 0.04 0.03 0.02 0.01 0.00 0.00 0.01 0.02 0.04 0.01 0.00 0.00 0.00 0.00 0.00 0.00 0.00 0.00 0.00
0.00 0.00 0.00 0.00 0.00 0.00 0.00 0.00 0.00 0.00 0.00 0.00 0.00 0.00 0.00 0.00 0.00 0.00 0.00 0.00 0.01 0.02 0.03 0.05 0.05 0.06 0.05 0.01 0.00 0.00 0.01 0.02 0.02 0.01 0.00 0.00 0.00 0.00 0.00 0.00 0.00 0.00 0.00
0.00 0.00 0.00 0.00 0.00 0.00 0.00 0.00 0.00 0.00 0.00 0.00 0.00 0.00 0.00 0.00 0.00 0.00 0.00 0.01 0.01 0.02 0.04 0.07 0.07 0.06 0.03 0.01 0.01 0.01 0.03 0.02 0.02 0.01 0.01 0.00 0.00 0.00 0.00 0.00 0.00 0.00 0.00
0.00 0.00 0.00 0.00 0.00 0.00 0.00 0.00 0.00 0.00 0.00 0.00 0.00 0.00 0.00 0.00 0.00 0.00 0.00 0.01 0.03 0.03 0.04 0.06 0.08 0.08 0.06 0.04 0.02 0.02 0.02 0.01 0.01 0.01 0.01 0.00 0.00 0.00 0.00 0.00 0.00 0.00 0.00
0.00 0.00 0.00 0.00 0.00 0.00 0.00 0.00 0.00 0.00 0.00 0.00 0.00 0.00 0.00 0.00 0.00 0.00 0.00 0.01 0.02 0.03 0.05 0.05 0.06 0.06 0.05 0.04 0.03 0.02 0.02 0.03 0.03 0.02 0.01 0.01 0.00 0.00 0.00 0.00 0.00 0.00 0.00
0.00 0.00 0.00 0.00 0.00 0.00 0.00 0.00 0.00 0.00 0.00 0.00 0.00 0.00 0.00 0.00 0.00 0.00 0.00 0.00 0.01 0.02 0.04 0.06 0.06 0.06 0.05 0.04 0.03 0.04 0.05 0.04 0.04 0.05 0.05 0.03 0.00 0.00 0.00 0.00 0.00 0.00 0.00
0.00 0.00 0.00 0.00 0.00 0.00 0.00 0.00 0.00 0.00 0.00 0.00 0.00 0.00 0.00 0.00 0.00 0.00 0.00 0.00 0.00 0.01 0.02 0.04 0.04 0.05 0.04 0.03 0.01 0.01 0.04 0.05 0.06 0.05 0.06 0.06 0.03 0.01 0.01 0.01 0.00 0.00 0.00
0.00 0.00 0.00 0.00 0.00 0.00 0.00 0.00 0.00 0.00 0.00 0.00 0.00 0.00 0.00 0.00 0.00 0.00 0.00 0.00 0.00 0.00 0.01 0.02 0.03 0.04 0.03 0.03 0.02 0.01 0.01 0.02 0.05 0.07 0.07 0.05 0.03 0.02 0.02 0.02 0.01 0.00 0.00
0.00 0.00 0.00 0.00 0.00 0.00 0.00 0.00 0.00 0.00 0.00 0.00 0.00 0.00 0.00 0.00 0.00 0.00 0.00 0.00 0.00 0.00 0.00 0.01 0.02 0.02 0.01 0.01 0.01 0.01 0.00 0.00 0.01 0.03 0.05 0.05 0.04 0.03 0.02 0.02 0.02 0.01 0.00
MSLP
1015.21 1015.71 1016.22 1016.78 1017.40 1018.01 1018.46 1019.03 1019.79 1020.60 1021.29 1021.85 1022.60 1023.36 1023.65 1024.18 1024.79 1025.15 1025.22 1025.24 1025.57 1025.45 1025.80 1026.08 1026.22 1026.31 1026.51 1026.73 1026.90 1027.04 1027.05 1027.13 1026.80 1025.97 1026.43 1026.56 1026.74 1026.70 1026.54 1026.49 1026.36 1025.90 1025.27
1014.81 1015.46 1015.84 1016.44 1017.15 1017.65 1018.14 1018.61 1019.27 1020.06 1020.66 1021.23 1022.19 1022.93 1023.64 1024.19 1024.50 1024.88 1024.80 1024.97 1024.94 1025.03 1025.19 1025.59 1025.56 1025.90 1026.09 1026.24 1026.35 1026.41 1026.47 1026.47 1026.46 1025.74 1025.74 1026.27 1026.48 1026.30 1026.26 1026.18 1025.86 1025.48 1025.01
1014.93 1015.44 1016.01 1016.36 1017.02 1017.61 1018.21 1018.79 1019.44 1019.99 1020.64 1021.41 1022.20 1023.30 1023.79 1023.96 1024.22 1024.41 1024.66 1024.68 1024.67 1024.70 1024.77 1024.95 1024.98 1025.19 1025.33 1025.43 1025.67 1025.76 1025.86 1026.05 1026.01 1025.85 1025.51 1025.75 1026.10 1026.03 1025.82 1025.59 1025.25 1024.93 1024.59
1015.31 1015.90 1016.34 1016.89 1017.49 1018.06 1018.62 1019.07 1019.64 1020.32 1020.94 1021.29 1022.09 1023.05 1023.44 1023.95 1024.06 1024.29 1024.59 1024.58 1024.52 1024.44 1024.33 1024.38 1024.29 1024.34 1024.45 1024.62 1024.95 1025.12 1025.31 1025.41 1025.44 1025.44 1025.26 1025.24 1025.39 1025.43 1025.56 1025.10 1024.54 1024.27 1023.86
1015.23 1015.82 1016.56 1017.20 1017.72 1018.36 1018.97 1019.79 1020.42 1021.00 1021.55 1021.98 1022.90 1023.17 1023.79 1023.92 1024.31 1024.39 1024.49 1024.15 1023.93 1023.79 1023.68 1023.65 1023.49 1023.48 1023.71 1024.02 1024.49 1024.55 1024.81 1024.84 1024.94 1024.90 1024.77 1024.75 1024.80 1024.74 1024.76 1024.73 1024.43 1023.90 1023.34
1015.74 1016.39 1017.02 1017.59 1018.31 1019.01 1019.71 1020.33 1021.06 1021.79 1022.39 1022.90 1023.40 1023.43 1023.52 1023.82 1024.05 1024.16 1024.12 1023.77 1023.44 1023.26 1023.08 1022.83 1022.78 1023.34 1023.48 1023.78 1024.06 1024.19 1024.35 1024.38 1024.53 1024.52 1024.38 1024.25 1024.33 1024.45 1024.66 1024.46 1024.19 1023.64 1022.77
1016.47 1017.08 1017.77 1018.49 1019.16 1019.91 1020.50 1021.07 1021.71 1022.20 1022.77 1023.03 1023.27 1023.37 1023.52 1023.48 1023.58 1023.72 1023.67 1023.46 1023.01 1022.73 1022.48 1022.25 1022.28 1022.60 1022.92 1022.99 1023.50 1023.76 1023.91 1024.22 1024.44 1024.28 1024.11 1023.96 1024.01 1024.17 1024.29 1024.13 1023.82 1023.43 1022.79
1017.27 1017.89 1018.55 1019.18 1019.78 1020.50 1021.14 1021.76 1022.33 1022.59 1022.72 1022.91 1023.01 1023.10 1023.12 1023.11 1023.27 1023.36 1023.24 1023.00 1022.66 1022.33 1022.14 1021.97 1021.84 1021.88 1022.21 1022.51 1022.78 1023.16 1023.10 1023.13 1023.34 1023.66 1023.61 1023.53 1023.66 1023.94 1023.99 1023.87 1023.61 1023.20 1022.57
1018.28 1018.78 1019.30 1019.82 1020.47 1021.03 1021.59 1021.97 1022.32 1022.52 1022.54 1022.54 1022.68 1022.76 1022.79 1022.76 1022.93 1022.88 1022.88 1022.56 1022.14 1021.71 1021.46 1021.39 1021.41 1021.41 1021.57 1021.87 1022.35 1022.32 1022.25 1022.21 1022.64 1023.08 1023.26 1023.40 1023.66 1023.85 1023.77 1023.37 1022.86 1022.44 1021.80
1019.15 1019.60 1020.09 1020.54 1021.07 1021.38 1021.71 1022.04 1022.31 1022.35 1022.44 1022.55 1022.51 1022.56 1022.54 1022.47 1022.27 1022.32 1022.23 1021.98 1021.53 1021.11 1020.92 1020.78 1020.84 1020.77 1020.91 1021.27 1021.35 1021.50 1021.39 1021.23 1021.63 1022.16 1022.38 1022.50 1022.72 1022.60 1022.98 1022.90 1022.36 1022.02 1021.61
1020.04 1020.46 1020.91 1021.23 1021.46 1021.75 1022.04 1022.26 1022.31 1022.39 1022.48 1022.47 1022.43 1022.24 1022.19 1022.04 1021.79 1021.69 1021.51 1021.38 1020.96 1020.48 1020.22 1019.96 1019.90 1019.96 1020.05 1020.22 1020.46 1020.67 1020.50 1020.57 1021.02 1021.37 1021.49 1021.51 1021.57 1021.60 1021.60 1021.59 1021.57 1021.60 1021.33
1020.83 1021.18 1021.50 1021.78 1022.02 1022.20 1022.32 1022.42 1022.50 1022.51 1022.47 1022.35 1022.24 1022.02 1021.75 1021.60 1021.38 1021.08 1020.78 1020.51 1020.22 1020.05 1019.45 1019.11 1018.99 1019.05 1019.02 1019.20 1019.43 1019.56 1019.83 1020.20 1020.45 1020.59 1020.75 1020.76 1020.71 1020.70 1020.60 1020.61 1020.76 1020.93 1020.86
1021.43 1021.82 1022.18 1022.39 1022.54 1022.65 1022.57 1022.57 1022.50 1022.50 1022.53 1022.43 1022.23 1021.87 1021.45 1021.33 1021.05 1020.83 1020.36 1019.92 1019.58 1019.35 1018.77 1018.18 1017.98 1018.07 1018.11 1018.20 1018.22 1018.47 1018.83 1019.23 1019.40 1019.57 1019.57 1019.65 1019.79 1019.79 1019.92 1020.19 1020.31 1020.35 1020.32
1022.10 1022.51 1022.73 1022.80 1022.88 1022.99 1022.97 1022.98 1022.89 1022.94 1022.91 1022.71 1022.45 1022.14 1021.72 1021.39 1021.12 1020.70 1020.21 1019.65 1019.03 1018.53 1018.09 1017.62 1017.41 1017.40 1017.39 1017.30 1017.35 1017.57 1017.72 1017.83 1017.97 1018.24 1018.47 1018.66 1019.03 1019.34 1019.40 1019.42 1019.56 1019.65 1019.66
1022.81 1023.07 1023.20 1023.32 1023.36 1023.27 1023.36 1023.54 1023.61 1023.70 1023.86 1023.57 1023.27 1023.02 1022.41 1021.70 1021.50 1021.37 1020.55 1019.59 1018.79 1017.92 1017.36 1016.91 1016.43 1016.13 1016.27 1016.41 1016.50 1016.52 1016.69 1016.88 1017.05 1017.25 1017.57 1017.91 1018.24 1018.42 1018.48 1018.70 1018.96 1019.05 1019.05
1023.41 1023.69 1023.99 1023.92 1023.93 1023.92 1023.90 1023.92 1024.31 1024.51 1024.27 1024.06 1023.91 1023.65 1023.19 1022.65 1021.86 1020.95 1019.98 1018.90 1018.10 1017.42 1016.58 1015.78 1015.27 1015.03 1014.96 1015.13 1015.34 1015.49 1015.73 1015.96 1016.06 1016.32 1016.67 1017.02 1017.26 1017.48 1017.63 1017.94 1018.30 1018.41 1018.35
1024.31 1024.61 1024.70 1024.64 1024.54 1024.52 1024.48 1024.39 1024.20 1024.05 1024.09 1024.08 1024.02 1023.63 1023.28 1022.89 1022.11 1020.92 1019.63 1017.99 1016.79 1016.40 1015.58 1014.72 1014.18 1013.82 1013.83 1014.05 1014.39 1014.66 1014.67 1014.77 1015.10 1015.40 1015.60 1016.00 1016.38 1016.65 1017.01 1017.15 1017.47 1017.75 1017.78
1024.95 1025.31 1025.19 1025.19 1025.15 1025.14 1025.01 1024.78 1024.54 1024.30 1023.97 1023.81 1023.72 1023.71 1023.49 1022.92 1022.05 1021.03 1019.86 1018.16 1016.50 1015.42 1014.84 1013.95 1013.35 1012.76 1012.58 1012.85 1013.24 1013.62 1013.80 1014.05 1014.37 1014.58 1014.76 1015.03 1015.50 1015.85 1016.14 1016.40 1016.74 1017.07 1017.23
1025.38 1025.59 1025.79 1025.83 1025.81 1025.81 1025.56 1025.32 1025.05 1024.81 1024.45 1024.08 1023.70 1023.40 1023.41 1023.02 1021.99 1021.19 1020.34 1019.46 1018.35 1017.25 1016.17 1014.44 1013.13 1012.09 1011.78 1012.08 1012.40 1012.72 1013.03 1013.17 1013.41 1013.66 1013.88 1014.24 1014.75 1015.14 1015.39 1015.64 1016.03 1016.61 1016.99
1025.95 1026.39 1026.38 1026.28 1026.27 1026.16 1026.06 1025.87 1025.66 1025.35 1025.04 1024.70 1024.23 1023.91 1023.52 1022.84 1021.88 1021.24 1020.73 1020.07 1019.27 1018.35 1017.34 1016.14 1014.81 1012.36 1011.58 1011.67 1011.89 1012.12 1012.28 1012.43 1012.66 1012.91 1013.09 1013.48 1013.99 1014.46 1014.73 1015.08 1015.51 1015.86 1016.24
1026.40 1026.65 1027.05 1026.80 1026.76 1026.79 1026.69 1026.51 1026.34 1026.08 1025.84 1025.44 1025.06 1024.80 1024.75 1023.87 1022.81 1022.06 1021.31 1020.74 1020.02 1019.24 1018.43 1017.40 1016.18 1015.01 1013.64 1011.89 1011.64 1011.64 1011.76 1011.81 1011.99 1012.21 1012.40 1012.85 1013.35 1013.81 1014.15 1014.39 1014.88 1015.41 1015.68
1027.06 1027.23 1027.27 1027.28 1027.29 1027.38 1027.42 1027.22 1026.94 1026.71 1026.36 1025.96 1025.51 1025.07 1024.77 1024.05 1023.40 1022.61 1021.78 1021.38 1020.73 1019.97 1019.32 1018.40 1017.32 1016.21 1015.34 1014.49 1013.32 1011.86 1011.54 1011.47 1011.49 1011.59 1011.79 1012.15 1012.66 1013.14 1013.53 1013.94 1014.37 1014.80 1015.22
1027.50 1027.76 1027.75 1027.80 1027.92 1028.06 1027.94 1027.81 1027.49 1027.23 1026.92 1026.51 1026.12 1025.55 1024.95 1024.34 1023.77 1023.13 1022.26 1021.80 1021.08 1020.22 1019.59 1018.85 1017.89 1016.91 1016.12 1015.48 1014.72 1013.31 1012.24 1011.56 1011.16 1011.08 1011.26 1011.58 1011.90 1012.32 1012.84 1013.22 1013.69 1014.21 1014.65
1027.99 1028.16 1028.20 1028.25 1028.39 1028.41 1028.38 1028.18 1027.93 1027.72 1027.41 1026.86 1026.39 1025.92 1025.28 1024.63 1023.96 1023.39 1022.60 1022.05 1021.38 1020.55 1019.86 1019.00 1018.14 1017.35 1016.68 1015.92 1015.14 1014.02 1012.94 1012.61 1011.87 1010.92 1010.77 1010.90 1011.20 1011.64 1012.03 1012.44 1012.90 1013.45 1014.04
1028.28 1028.44 1028.52 1028.52 1028.64 1028.76 1028.76 1028.56 1028.33 1028.05 1027.61 1027.12 1026.53 1026.00 1025.44 1024.78 1024.04 1023.45 1022.77 1022.16 1021.52 1020.77 1019.93 1018.98 1018.07 1017.27 1016.53 1015.90 1015.19 1014.34 1013.71 1013.20 1012.42 1011.55 1010.70 1010.48 1010.64 1010.93 1011.32 1011.70 1012.16 1012.79 1013.47
1028.42 1028.61 1028.67 1028.73 1028.81 1028.94 1028.90 1028.80 1028.51 1028.18 1027.73 1027.20 1026.65 1026.10 1025.55 1024.81 1024.11 1023.48 1022.86 1022.15 1021.44 1020.81 1019.78 1018.69 1017.84 1017.10 1016.38 1015.49 1014.70 1014.15 1013.71 1013.25 1012.53 1011.68 1011.01 1010.36 1010.22 1010.48 1010.88 1011.20 1011.61 1012.14 1012.87
Thickness
5617 5612 5605 5597 5589 5581 5574 5567 5557 5547 5537 5528 5516 5504 5497 5487 5475 5466 5458 5450 5439 5433 5422 5411 5401 5390 5378 5367 5355 5343 5333 5321 5313 5309 5294 5280 5268 5257 5249 5242 5237 5235 5234
5614 5606 5599 5591 5582 5574 5569 5561 5552 5542 5531 5522 5509 5498 5487 5475 5466 5455 5450 5440 5432 5422 5412 5400 5390 5378 5366 5355 5344 5333 5322 5310 5299 5296 5285 5271 5258 5246 5238 5232 5227 5223 5222
5605 5598 5590 5584 5575 5568 5559 5550 5540 5531 5520 5509 5497 5483 5476 5464 5455 5445 5435 5428 5420 5410 5400 5389 5379 5368 5356 5345 5333 5322 5310 5297 5287 5280 5275 5261 5247 5236 5230 5224 5220 5216 5214
5592 5585 5579 5572 5564 5555 5546 5539 5529 5518 5507 5499 5486 5472 5464 5452 5443 5432 5422 5413 5406 5397 5387 5377 5368 5358 5347 5336 5324 5310 5299 5288 5278 5270 5263 5252 5239 5230 5221 5218 5217 5211 5211
5586 5578 5568 5559 5551 5541 5533 5521 5511 5500 5490 5481 5465 5457 5445 5437 5427 5419 5409 5404 5396 5387 5377 5366 5358 5349 5338 5325 5311 5300 5288 5279 5270 5262 5254 5244 5233 5226 5219 5212 5209 5208 5207
5572 5562 5552 5544 5535 5525 5515 5505 5493 5482 5471 5459 5449 5441 5434 5425 5415 5406 5398 5393 5384 5374 5366 5358 5348 5336 5324 5310 5298 5288 5278 5268 5260 5252 5245 5235 5226 5218 5209 5205 5203 5202 5204
5555 5547 5537 5527 5517 5507 5497 5487 5476 5466 5454 5445 5436 5428 5419 5413 5405 5395 5387 5380 5373 5364 5356 5347 5336 5323 5309 5298 5286 5276 5267 5256 5247 5242 5234 5225 5218 5209 5203 5199 5197 5196 5196
5539 5530 5520 5510 5500 5490 5479 5468 5457 5448 5440 5432 5423 5415 5408 5400 5390 5380 5372 5366 5358 5350 5340 5332 5323 5312 5298 5285 5276 5265 5258 5250 5239 5232 5223 5216 5209 5202 5196 5193 5191 5190 5189
5519 5510 5502 5493 5482 5472 5461 5451 5442 5433 5426 5419 5410 5403 5395 5386 5375 5366 5357 5352 5345 5339 5330 5320 5308 5298 5285 5273 5264 5257 5250 5242 5232 5222 5214 5207 5201 5195 5190 5188 5188 5188 5187
5501 5493 5484 5474 5464 5455 5446 5436 5427 5421 5412 5404 5397 5388 5379 5371 5360 5352 5344 5338 5334 5327 5317 5306 5292 5283 5274 5263 5256 5249 5243 5235 5226 5216 5208 5202 5197 5193 5187 5184 5184 5182 5181
5482 5473 5464 5455 5446 5437 5429 5420 5413 5405 5396 5389 5383 5374 5365 5355 5349 5339 5331 5323 5316 5312 5303 5294 5282 5271 5264 5257 5248 5240 5234 5226 5216 5208 5202 5198 5194 5191 5187 5184 5181 5178 5176
5462 5453 5445 5437 5428 5420 5412 5403 5396 5389 5381 5374 5365 5359 5350 5340 5332 5326 5318 5308 5300 5291 5288 5281 5272 5262 5255 5248 5240 5233 5223 5213 5206 5201 5196 5192 5190 5188 5186 5183 5179 5174 5171
5444 5434 5425 5417 5409 5401 5394 5386 5379 5372 5364 5357 5350 5346 5340 5328 5319 5306 5298 5291 5281 5270 5270 5268 5262 5253 5245 5239 5232 5224 5214 5206 5201 5196 5194 5191 5188 5186 5183 5179 5175 5171 5168
5424 5414 5406 5398 5391 5382 5375 5368 5360 5351 5343 5337 5330 5325 5320 5312 5300 5291 5283 5273 5267 5258 5252 5249 5245 5240 5233 5226 5222 5214 5208 5204 5199 5196 5193 5189 5185 5181 5179 5178 5174 5170 5167
5403 5394 5386 5379 5372 5365 5357 5347 5338 5327 5316 5310 5303 5294 5290 5289 5278 5263 5257 5254 5248 5247 5242 5236 5233 5230 5223 5216 5212 5208 5203 5198 5194 5193 5189 5186 5182 5180 5179 5176 5172 5168 5165
5384 5375 5365 5360 5353 5346 5338 5327 5314 5303 5294 5285 5276 5267 5258 5251 5248 5243 5239 5236 5232 5227 5227 5228 5226 5221 5217 5210 5207 5202 5197 5193 5191 5188 5186 5183 5181 5179 5178 5175 5170 5167 5164
5361 5352 5345 5339 5333 5326 5318 5311 5303 5292 5278 5267 5256 5248 5239 5228 5220 5218 5220 5224 5224 5216 5215 5217 5215 5214 5209 5203 5199 5195 5193 5191 5187 5185 5185 5181 5179 5178 5175 5174 5170 5166 5163
5341 5331 5325 5319 5312 5304 5297 5290 5282 5274 5265 5254 5241 5228 5218 5209 5201 5195 5193 5198 5206 5205 5205 5208 5207 5208 5206 5200 5196 5191 5189 5186 5183 5181 5181 5180 5177 5176 5175 5173 5170 5165 5161
5321 5313 5304 5296 5289 5280 5273 5265 5258 5250 5243 5234 5224 5212 5199 5188 5182 5175 5169 5165 5167 5170 5176 5188 5195 5199 5199 5194 5191 5187 5184 5182 5180 5179 5178 5177 5175 5174 5173 5172 5169 5160 5155
5301 5290 5282 5276 5267 5258 5250 5242 5234 5225 5216 5206 5198 5189 5181 5175 5170 5162 5153 5148 5146 5148 5152 5157 5163 5183 5188 5186 5184 5181 5179 5178 5176 5175 5175 5174 5173 5172 5171 5169 5165 5162 5158
5280 5271 5259 5254 5245 5235 5226 5217 5208 5199 5189 5180 5171 5160 5148 5146 5145 5140 5135 5130 5129 5129 5130 5134 5141 5148 5158 5173 5174 5174 5173 5172 5172 5171 5171 5170 5169 5168 5168 5167 5164 5159 5157
5258 5249 5240 5231 5222 5212 5201 5192 5184 5174 5166 5158 5150 5141 5130 5125 5121 5118 5115 5110 5108 5109 5110 5113 5119 5126 5132 5139 5148 5161 5164 5165 5166 5167 5167 5167 5166 5166 5165 5164 5161 5158 5155
5237 5226 5218 5209 5199 5187 5178 5170 5162 5153 5144 5136 5128 5121 5113 5108 5102 5098 5097 5092 5090 5091 5091 5094 5099 5106 5113 5119 5126 5137 5147 5154 5159 5162 5163 5163 5164 5164 5163 5162 5160 5157 5154
5214 5205 5196 5187 5176 5167 5158 5150 5142 5133 5126 5119 5111 5102 5096 5091 5087 5082 5080 5077 5075 5075 5075 5078 5082 5089 5096 5104 5112 5121 5131 5136 5144 5153 5158 5160 5161 5161 5161 5161 5160 5157 5153
5193 5184 5175 5167 5157 5149 5139 5131 5123 5116 5110 5103 5095 5087 5081 5076 5073 5069 5066 5064 5062 5062 5063 5065 5069 5076 5086 5094 5102 5109 5117 5123 5130 5139 5149 5154 5156 5158 5158 5159 5158 5155 5152
5173 5164 5157 5149 5141 5132 5123 5114 5107 5101 5095 5088 5080 5073 5068 5064 5061 5058 5055 5053 5052 5050 5053 5055 5057 5063 5074 5085 5095 5101 5108 5114 5121 5129 5137 5146 5151 5152 5153 5154 5153 5153 5149